Location: Zlin
(49.2330°N, 17.6670°E)
Time: 12:18:29
(UTC+01:00)

ISS - Visible Passes

Search period start: 10 December 2019 00:00
Search period end: 20 December 2019 00:00
Orbit: 411 x 421 km, 51.6° (Epoch: 10 December)

Date Brightness Start Highest point End Pass type
(mag) Time Alt. Az. Time Alt. Az. Time Alt. Az.
10 Dec -2.4 16:50:37 10° WNW 16:53:49 41° SSW 16:57:00 10° SE visible
11 Dec -0.6 17:39:56 10° WSW 17:41:36 13° SW 17:43:16 10° SSW visible
12 Dec -0.8 16:50:47 10° W 16:53:19 20° SW 16:55:51 10° S visible
